Location: Wapato
(46.4478°N, 120.4212°W)
Time: 05:54:48
(UTC+00:00)

Vanguard 2 Rocket - All Passes

Search period start: 10 May 2026 00:00
Search period end: 20 May 2026 00:00
Orbit: 553 x 3286 km, 32.9° (Epoch: 9 May)

Date Brightness Start Highest point End Pass type
(mag) Time Alt. Az. Time Alt. Az. Time Alt. Az.
10 May - 00:02:06 10° W 00:20:38 49° SSW 00:35:57 10° SE daylight
10 May - 02:20:16 10° W 02:34:55 29° SW 02:46:11 10° SSE daylight
10 May - 18:30:28 10° SSW 18:42:36 29° SE 18:57:41 10° E daylight
10 May - 20:40:57 10° SW 20:57:10 49° SSE 21:15:28 10° E daylight
10 May - 22:55:03 10° WSW 23:13:26 52° S 23:30:25 10° ESE daylight
11 May - 01:11:46 10° W 01:28:49 38° SSW 01:42:23 10° SSE daylight
11 May - 03:33:38 10° WSW 03:41:32 15° SW 03:48:20 10° SSW daylight
11 May - 17:27:46 10° S 17:36:55 20° SE 17:48:11 10° E daylight
11 May - 19:35:53 10° SW 19:50:15 42° SSE 20:08:04 10° E daylight
11 May - 21:48:36 10° WSW 22:06:02 53° S 22:24:14 10° ESE daylight
12 May - 00:04:04 10° W 00:22:08 45° SSW 00:37:41 10° SE daylight
12 May - 02:22:49 10° W 02:36:07 24° SW 02:46:58 10° S daylight
12 May - 16:29:00 10° SE 16:31:48 11° SE 16:34:49 10° ESE daylight
12 May - 18:31:37 10° SSW 18:43:53 34° SE 18:59:58 10° E daylight
12 May - 20:42:48 10° WSW 20:58:44 51° S 21:17:25 10° ESE daylight
12 May - 22:57:01 10° W 23:15:00 50° SSW 23:32:13 10° SE daylight
13 May - 01:13:59 10° W 01:30:07 33° SW 01:43:36 10° SSE daylight
13 May - 03:41:04 10° WSW 03:42:36 10° SW 03:44:06 10° SW daylight
13 May - 17:28:19 10° S 17:38:07 24° SE 17:51:00 10° E daylight
13 May - 19:37:38 10° SW 19:51:44 46° SSE 20:10:00 10° E daylight
13 May - 21:50:37 10° WSW 22:07:39 53° S 22:26:04 10° ESE daylight
14 May - 00:06:10 10° W 00:23:33 41° SSW 00:39:09 10° SE daylight
14 May - 02:25:59 10° W 02:37:15 19° SW 02:46:59 10° S daylight
14 May - 16:26:46 10° SSE 16:32:58 15° SE 16:40:28 10° ESE daylight
14 May - 18:33:09 10° SSW 18:45:17 38° SSE 19:01:59 10° E daylight
14 May - 20:44:47 10° WSW 21:00:20 52° S 21:19:14 10° ESE daylight
14 May - 22:59:08 10° W 23:16:31 47° SSW 23:33:50 10° SE daylight
15 May - 01:16:29 10° W 01:31:20 28° SW 01:44:22 10° S daylight
15 May - 17:29:27 10° SSW 17:39:27 29° SE 17:53:22 10° E daylight
15 May - 19:39:35 10° SW 19:53:20 49° SSE 20:11:48 10° E daylight
15 May - 21:52:45 10° WSW 22:09:15 51° S 22:27:44 10° ESE daylight
16 May - 00:08:27 10° W 00:24:53 36° SSW 00:40:17 10° SSE daylight
16 May - 02:30:24 10° WSW 02:38:19 14° SW 02:45:36 10° SSW daylight
16 May - 16:26:55 10° S 16:34:14 19° SE 16:43:50 10° E daylight
16 May - 18:34:58 10° SW 18:46:50 42° SSE 19:03:51 10° E daylight
16 May - 20:46:57 10° WSW 21:02:01 52° S 21:20:56 10° ESE daylight
16 May - 23:01:22 10° W 23:17:59 43° SSW 23:35:10 10° SE daylight
17 May - 01:19:27 10° W 01:32:29 22° SW 01:44:29 10° S daylight
17 May - 17:31:01 10° SSW 17:40:56 33° SSE 17:55:26 10° E daylight
17 May - 19:41:42 10° WSW 19:55:02 50° S 20:13:30 10° ESE daylight
17 May - 21:55:00 10° W 22:10:52 48° SSW 22:29:12 10° SE daylight
18 May - 00:11:00 10° W 00:26:10 30° SW 00:40:58 10° SSE daylight
18 May - 16:27:55 10° S 16:35:39 23° SE 16:46:27 10° E daylight
18 May - 18:37:01 10° SW 18:48:30 45° SSE 19:05:36 10° E daylight
18 May - 20:49:13 10° WSW 21:03:43 50° S 21:22:28 10° ESE daylight
18 May - 23:03:45 10° W 23:19:26 38° SSW 23:36:11 10° SSE daylight
19 May - 01:23:18 10° WSW 01:33:37 17° SW 01:43:33 10° SSW daylight
19 May - 15:26:36 10° SSE 15:30:54 13° SE 15:36:06 10° ESE daylight
19 May - 17:32:53 10° SW 17:42:33 37° SSE 17:57:20 10° E daylight
19 May - 19:43:58 10° WSW 19:56:48 50° S 20:15:06 10° ESE daylight
19 May - 21:57:21 10° W 22:12:27 43° SSW 22:30:24 10° SE daylight
